This demonstration page uses our WeatherBlox Daily Observations layout. Learn more.

Left ArrowRight Arrow

Hourly Observations for November 3, 2020

Temp ( °F °C ) Dew Point ( °F °C ) Humidity (%) Winds ( mph kmh ) Pressure ( in mb ) Visibility ( mi km ) Precip ( " mm )
12:56 am 00:56 Clear 44 6.7 29 -1.7 55 55 SW 6 9 30.09 1019 10 16 0.00 0.00
1:56 am 01:56 Clear 43 6.1 29 -1.7 58 58 SSW 7 11 30.07 1018 10 16 0.00 0.00
2:56 am 02:56 Clear 46 7.8 29 -1.7 51 51 SW 9 15 30.05 1018 10 16 0.00 0.00
3:56 am 03:56 Clear 44 6.7 29 -1.7 55 55 WSW 6 9 30.03 1017 10 16 0.00 0.00
4:56 am 04:56 Clear 46 7.8 29 -1.7 51 51 WSW 9 15 30.03 1017 10 16 0.00 0.00
5:56 am 05:56 Clear 47 8.3 29 -1.7 50 50 WSW 9 15 30.03 1017 10 16 0.00 0.00
6:56 am 06:56 Clear 42 5.6 28 -2.2 58 58 WSW 3 6 30.03 1017 10 16 0.00 0.00
7:56 am 07:56 Hazy 43 6.1 29 -1.7 58 58 WSW 6 9 30.03 1017 5 8 0.00 0.00
8:56 am 08:56 Sunny 49 9.4 29 -1.7 46 46 SW 8 13 30.04 1017 10 16 0.00 0.00
9:56 am 09:56 Sunny 57 13.9 31 -0.6 37 37 WSW 8 13 30.04 1017 10 16 0.00 0.00
10:56 am 10:56 Sunny 65 18.3 31 -0.6 28 28 SW 8 13 30.01 1016 10 16 0.00 0.00
11:56 am 11:56 Sunny 73 22.8 33 0.6 23 23 SSW 10 17 29.98 1015 10 16 0.00 0.00
12:56 pm 12:56 Sunny 79 26.1 31 -0.6 17 17 SSW 13 20 29.94 1014 10 16 0.00 0.00
1:56 pm 13:56 Sunny 82 27.8 28 -2.2 14 14 SW 17 28 29.91 1013 10 16 0.00 0.00
2:56 pm 14:56 Sunny 82 27.8 26 -3.3 13 13 SW 17 28 29.89 1012 10 16 0.00 0.00
3:56 pm 15:56 Sunny 81 27.2 27 -2.8 14 14 WSW 13 20 29.89 1012 10 16 0.00 0.00
4:56 pm 16:56 Sunny 75 23.9 30 -1.1 19 19 SSW 10 17 29.90 1013 10 16 0.00 0.00
5:56 pm 17:56 Clear 67 19.4 31 -0.6 26 26 SSW 9 15 29.92 1013 10 16 0.00 0.00
6:56 pm 18:56 Clear 64 17.8 31 -0.6 29 29 SSW 7 11 29.94 1014 10 16 0.00 0.00
7:56 pm 19:56 Clear 59 15 32 0 36 36 SSW 8 13 29.95 1014 10 16 0.00 0.00
8:56 pm 20:56 Clear 57 13.9 32 0 39 39 SW 8 13 29.95 1014 10 16 0.00 0.00
9:56 pm 21:56 Clear 55 12.8 33 0.6 44 44 SW 7 11 29.95 1014 10 16 0.00 0.00
10:56 pm 22:56 Clear 46 7.8 31 -0.6 56 56 SW 5 7 29.95 1014 10 16 0.00 0.00
11:56 pm 23:56 Clear 50 10 31 -0.6 48 48 SW 7 11 29.94 1014 10 16 0.00 0.00

Powered by AerisWeather